Tracking 20719 objects as of 26-May-2020
HD Live streaming from Space Station
objects crossing your sky now

SAKURA 2B (CS-2B)

Track SAKURA 2B (CS-2B) now!
SAKURA 2B (CS-2B) is classified as:


NORAD ID: 14248
Int'l Code: 1983-081A
Perigee: 36,174.0 km
Apogee: 36,241.5 km
Inclination: 14.3 °
Period: 1,457.3 minutes
Semi major axis: 42578 km
RCS: 8.9693 m2 (large)
Launch date: August 5, 1983
Source: Japan (JPN)
Launch site: TANEGASHIMA SPACE CENTER (TNSTA)
aabbcc
Your satellite tracking list
Your tracking list is empty




NASA's NSSDC Master Catalog

Two Line Element Set (TLE):
1 14248U 83081A   20146.26571830 -.00000060  00000-0  00000+0 0  9990
2 14248  14.2602 341.7307 0007929  30.9458 170.5742  0.98812840101870
Source of the keplerian elements: AFSPC